Location: Poughquag
(41.6090°N, 73.6820°W)
Time: 02:29:46
(UTC-04:00)

Courier 1B Rocket - All Passes

Search period start: 15 October 2019 00:00
Search period end: 25 October 2019 00:00
Orbit: 920 x 1202 km, 28.2° (Epoch: 14 October)

Date Brightness Start Highest point End Pass type
(mag) Time Alt. Az. Time Alt. Az. Time Alt. Az.
15 Oct - 05:50:37 10° SSW 05:54:33 17° SSE 05:58:36 10° ESE visible
15 Oct - 07:41:50 10° SW 07:47:00 25° S 07:52:28 10° ESE daylight
15 Oct - 09:34:35 10° WSW 09:39:38 22° S 09:44:57 10° SE daylight
15 Oct - 11:29:45 10° SW 11:32:12 12° SSW 11:34:41 10° S daylight
16 Oct - 04:51:10 10° S 04:53:54 13° SSE 04:56:39 10° SE visible
16 Oct - 06:41:21 10° SW 06:46:15 23° S 06:51:20 10° ESE visible
16 Oct - 08:33:42 10° WSW 08:38:49 24° S 08:44:12 10° SE daylight
16 Oct - 10:27:38 10° SW 10:31:24 15° SSW 10:35:17 10° SSE daylight
17 Oct - 05:41:05 10° SSW 05:45:32 20° SSE 05:50:06 10° ESE visible
17 Oct - 07:32:57 10° SW 07:38:02 25° S 07:43:20 10° SE daylight
17 Oct - 09:26:14 10° WSW 09:30:36 18° SSW 09:35:09 10° SSE daylight
18 Oct - 04:41:03 10° SSW 04:44:51 17° SSE 04:48:41 10° SE visible
18 Oct - 06:32:20 10° SW 06:37:16 24° S 06:42:23 10° SE visible
18 Oct - 08:25:08 10° WSW 08:29:49 21° S 08:34:43 10° SE daylight
18 Oct - 10:20:56 10° SW 10:22:18 11° SSW 10:23:40 10° SSW daylight
19 Oct - 03:41:30 10° S 03:44:11 13° SSE 03:46:52 10° SE visible
19 Oct - 05:31:49 10° SW 05:36:32 23° S 05:41:21 10° ESE visible
19 Oct - 07:24:13 10° WSW 07:29:03 23° S 07:34:04 10° SE daylight
19 Oct - 09:18:20 10° SW 09:21:33 14° SSW 09:24:50 10° S daylight
20 Oct - 04:31:28 10° SSW 04:35:50 20° SSE 04:40:15 10° ESE visible
20 Oct - 06:23:27 10° SW 06:28:19 24° S 06:33:19 10° SE visible
20 Oct - 08:16:50 10° SW 08:20:48 17° SSW 08:24:54 10° SSE daylight
21 Oct - 03:31:21 10° SSW 03:35:09 17° SSE 03:38:58 10° SE visible
21 Oct - 05:22:46 10° SW 05:27:35 24° S 05:32:29 10° SE visible
21 Oct - 07:15:41 10° WSW 07:20:05 20° SSW 07:24:36 10° SSE daylight
22 Oct - 02:31:37 10° S 02:34:30 13° SSE 02:37:21 10° SE night (unlit)
22 Oct - 04:22:11 10° SW 04:26:52 22° S 04:31:34 10° SE visible
22 Oct - 06:14:43 10° SW 06:19:21 22° S 06:24:05 10° SE visible
22 Oct - 08:09:07 10° SW 08:11:46 13° SSW 08:14:29 10° S daylight
23 Oct - 03:21:43 10° SW 03:26:10 20° S 03:30:34 10° ESE visible
23 Oct - 05:13:51 10° SW 05:18:38 23° S 05:23:28 10° SE visible
23 Oct - 07:07:25 10° SW 07:11:05 16° SSW 07:14:48 10° SSE daylight
24 Oct - 02:21:26 10° SSW 02:25:28 17° SSE 02:29:25 10° SE night (unlit)
24 Oct - 04:13:04 10° SW 04:17:56 24° S 04:22:45 10° SE visible
24 Oct - 06:06:09 10° SW 06:10:23 19° SSW 06:14:40 10° SSE visible
